Regional Weather Roundup
Issued by NWS

Home | Current Version | Previous Version | Text Only | Print | Product List | Glossary Off
Versions: 1 2 3 4 5 6 7 8 9 10 11 12 13 14 15 16 17 18 19 20 21 22 23 24 25 26 27 28 29 30 31 32 33 34 35 36 37 38 39 40 41 42 43 44 45 46 47 48 49 50

277
ASUS45 KCYS 132210
RWRWY

WYOMING REGIONAL WEATHER ROUNDUP
NATIONAL WEATHER SERVICE CHEYENNE WY
300 PM MST WED DEC 13 2017

NOTE:  "FAIR" INDICATES FEW OR NO CLOUDS BELOW 12,000 FEET
WITH NO SIGNIFICANT WEATHER AND/OR OBSTRUCTIONS TO VISIBILITY.

WYZ001-132300-
YELLOWSTONE NATIONAL PARK

CITY           SKY/WX    TMP DP  RH WIND       PRES   REMARKS
LK YELLOWSTONE   N/A     23  21  92 CALM      30.18F
W YELLOWSTONE  NOT AVBL

$$
WYZ002>013-054>058-071-098>099-132300-
NORTHERN WYOMING

CITY           SKY/WX    TMP DP  RH WIND       PRES   REMARKS
JACKSON        PTSUNNY   28  23  81 CALM      30.17F
CODY           LGT RAIN  35  25  66 N10       30.19R WCI  27
GREYBULL       CLOUDY    41  21  44 NW12G17   30.16S
WORLAND        CLOUDY    38  17  42 N7        30.15S WCI  33
SHERIDAN       CLOUDY    42  20  41 NW10      30.14R
BUFFALO        CLOUDY    41  15  35 N16       30.12R
GILLETTE       FAIR      40  18  41 N13       30.08F WCI  32
HULETT         FAIR      37  25  60 NW7       30.09R WCI  32
NEWCASTLE      FAIR      36  19  51 NW16      30.06S WCI  26

$$
WYZ014>020-022>026-101>103-132300-
CENTRAL WYOMING

CITY           SKY/WX    TMP DP  RH WIND       PRES   REMARKS
BIG PINEY      CLOUDY    33  22  63 NE20G28   30.10F WCI  21
PINEDALE       CLOUDY    32  28  86 NW14      30.12F WCI  22
DUBOIS         CLOUDY    32  23  69 NW7       30.10S WCI  26
LANDER         CLOUDY    36  25  64 N12       30.12S WCI  28
RIVERTON       CLOUDY    35  26  69 NW8       30.14S WCI  29
CASPER         CLOUDY    41  19  41 NW14      30.09R
DOUGLAS        FAIR      43  17  35 N12       30.07R

$$
WYZ021-027>030-104>119-132300-
SOUTHERN WYOMING

CITY           SKY/WX    TMP DP  RH WIND       PRES   REMARKS
EVANSTON       CLOUDY    38   7  27 W10       30.14F WCI  31
FORT BRIDGER   MOCLDY    42   0  17 W14G22    30.14F
ROCK SPRINGS   CLOUDY    40  -3  16 NW16      30.09F WCI  31
DIXON          CLOUDY    37  25  60 CALM      30.11F
RAWLINS        CLOUDY    40  11  30 W10       30.08R WCI  33
SARATOGA       CLOUDY    39  14  35 NW3       30.06F
LARAMIE        CLOUDY    40  10  29 N10       30.04S WCI  33
CHEYENNE       PTSUNNY   44  12  27 N13       30.01F
TORRINGTON     FAIR      50  14  23 N21G31    30.02R
PINE BLUFFS    FAIR      45  12  26 N12G21    30.03S

$$




USA.gov is the U.S. government's official web portal to all federal, state and local government web resources and services.